www.pogodaiklimat.ru

Погода и климат >> Архив погоды >> Марокко >> Эль-Хосейма


ПОГОДА в Эль-Хосейме

  • Прогноз погоды в Эль-Хосейме
  • Монитор погоды в Эль-Хосейме

АРХИВ ПОГОДЫ в Эль-Хосейме

Время (UTC), дата Ветер
(напр.,м/с)
 
Видим.   Явления Облачность Т
(С)
Тd
(С)
f
(%)
Тe
(С)
Тes
(С)
Комфортность P
(гПа)
Po
(гПа)
Тmin
(С)
Tmax
(С)
R
(мм)
R24
(мм)
S
(см)
00 11.06 С 4-6
{19}
15 км ясно +16.9 +10.7 67 +16 +16 1014.4 1012.7
03 11.06 Ю 6-8
{12}
15 км ясно +16.9 +9.1 60 +16 +16 1012.0 1010.3
06 11.06 Ю 2-4
{12}
15 км ясно +17.8 +12.3 70 +18 +19 1011.8 1010.1 +14.3
09 11.06 С 10-14
{16}
15 км ясно +23.9 +11.2 45 +25 +26 комфорт 1012.0 1010.3
12 11.06 СЗ 14-17
{23}
15 км ясно +25.3 +9.2 36 +26 +26 жарко 1010.7 1009.0
15 11.06 СЗ 12-19
{25}
15 км ясно +26.9 +8.8 32 +27 +27 жарко 1009.9 1008.2
18 11.06 СЗ 10-13
{25}
15 км ясно +24.5 +11.1 43 +26 +26 жарко 1009.5 1007.8 +28.0
21 11.06 Ю 2-2
{14}
15 км ясно +20.3 +11.0 55 +23 +23 комфорт 1010.9 1009.2
00 12.06 Ю 4-4
{19}
15 км ясно +18.4 +9.5 56 +19 +19 1010.8 1009.1
03 12.06 С 2-5
{4}
15 км ясно +16.7 +9.6 63 +17 +17 1010.6 1008.9
06 12.06 З 4-4
{6}
15 км 5/0
[Ci sp]
+17.4 +12.3 72 +17 +17 1011.4 1009.7 +15.3
09 12.06 С 6-8
{12}
15 км 8/0
[Ac cast Ci sp]
+22.1 +13.4 58 +25 +28 комфорт 1011.7 1010.0
12 12.06 СЗ 14-21
{21}
15 км 3/0
[Ci fib]
+22.3 +16.1 68 +26 +26 жарко 1011.5 1009.8
15 12.06 С 12-7
{9}
15 км 3/3 600 м
[Cu hum]
+24.5 +15.1 56 +27 +27 жарко 1010.1 1008.4
18 12.06 С 6-4
{6}
15 км 4/4 600 м
[Cu Sc]
+23.5 +16.0 63 +27 +27 душно 1009.3 1007.6 +25.6
21 12.06 СЗ 4-5
{5}
15 км 5/5 600 м
[Cu Sc]
+20.9 +15.7 72 +24 +24 комфорт 1010.4 1008.7
00 13.06 СЗ 6-4
{4}
15 км 5/5 600 м
[Cu Sc]
+19.3 +16.0 81 +21 +21 комфорт 1010.5 1008.8
03 13.06 штиль 0-1
{1}
15 км 5/5 600 м
[Cu med, cong Ac trans]
+19.0 +16.4 85 +20 +20 1009.6 1007.9
06 13.06 В 2-1
{1}
8000 м 9/9 600 м
[Cu Sc]
+19.7 +16.3 81 +23 +23 комфорт 1009.9 1008.2 +18.3
09 13.06 С 10-8
{8}
10 км 6/6 600 м
[Cu Sc]
+21.5 +15.8 70 +25 +25 комфорт 1009.6 1007.9
12 13.06 С 10-9
{9}
10 км 6/6 600 м
[Cu Sc]
+24.2 +16.2 61 +28 +28 душно 1008.8 1007.1
15 13.06 С 10-14
{17}
10 км 9/9 700 м
[Cu Sc]
+23.5 +17.0 67 +27 +27 душно 1008.7 1007.0
18 13.06 СЗ 8-14
{17}
10 км 10/10 600 м
[Cu Sc]
+19.8 +17.6 87 +22 +22 комфорт 1009.6 1007.9 +26.4
21 13.06 С 2-2
{16}
5000 м гроза, ливневой дождь 10/8 480 м
[Cb cap Ac As]
+19.2 +17.9 92 +22 +22 комфорт 1012.6 1010.9 1
00 14.06 В 2-4
{16}
8000 м в посл. час дождь {гроза} 9/5 300 м
[Cu med, cong Ac As]
+18.3 +17.5 95 +19 +19 1013.3 1011.6 8
03 14.06 ЮЗ 4-4
{6}
15 км 9/9 480 м
[Cu Sc]
+18.2 +15.4 84 +18 +18 1013.5 1011.8
06 14.06 С 2-4
{6}
10 км 9/9 480 м
[Cu Sc]
+18.5 +15.4 82 +20 +20 1015.0 1013.3 +17.9
09 14.06 С 8-12
{12}
10 км 8/8 600 м
[Cu Sc]
+19.6 +14.6 73 +21 +21 комфорт 1016.8 1015.1
12 14.06 СЗ 12-14
{21}
10 км 9/9 600 м
[Cu Sc]
+20.2 +13.6 66 +21 +21 комфорт 1017.8 1016.1
15 14.06 СЗ 12-19
{25}
10 км 4/3 600 м
[Cu Sc Ci fib]
+21.2 +11.5 54 +23 +23 комфорт 1017.6 1015.9
18 14.06 СЗ 10-12
{19}
15 км 3/0
[Ci sp]
+20.5 +10.9 54 +22 +22 комфорт 1017.4 1015.7 +22.1
21 14.06 Ю 2-4
{4}
15 км 1/0
[Ci fib]
+17.4 +10.3 63 +18 +18 1018.9 1017.2
00 15.06 ЮЗ 4-4
{16}
15 км 3/0
[Ci sp]
+15.8 +10.1 69 +15 +15 1019.1 1017.4
03 15.06 Ю 3 14 км 5/5
[Cu med, cong Ac trans]
+14.7 +11.3 80 +14 +14 1018.7 1017.0
06 15.06 В 4-6
{8}
15 км ясно +15.9 +11.5 75 +15 +16 1019.1 1017.4 +13.5
09 15.06 В 2-6
{16}
15 км 1/0
[Ci fib]
+22.7 +9.8 44 +24 +36 комфорт 1019.0 1017.3
12 15.06 С 8-10
{17}
15 км ясно +23.6 +8.4 38 +24 +28 комфорт 1018.5 1016.8
15 15.06 С 8-10
{17}
15 км ясно +22.8 +10.2 45 +25 +27 комфорт 1017.3 1015.6
18 15.06 С 4-5
{6}
15 км ясно +23.5 +10.2 43 +25 +26 комфорт 1016.5 1014.8 +24.1
21 15.06 Ю 4-8
{8}
15 км ясно +21.1 +8.0 43 +22 +22 комфорт 1017.2 1015.5
00 16.06 СЗ 2-4
{8}
15 км 8/0
[Ac cast]
+18.4 +11.7 65 +19 +19 1016.5 1014.8
03 16.06 Ю 2-4
{6}
15 км ясно +16.5 +9.9 65 +17 +17 1015.5 1013.8
06 16.06 Ю 2-5
{14}
15 км 4/0
[Ci sp]
+15.2 +10.6 74 +15 +16 1016.5 1014.8 +13.9
09 16.06 С 8-15
{16}
15 км 8/0
[Ci sp]
+20.1 +16.1 78 +22 +24 комфорт 1018.3 1016.6
12 16.06 С 10-17
{18}
15 км 6/3 1000 м
[Sc Ac cast Ci sp]
+20.7 +16.7 78 +24 +24 комфорт 1017.4 1015.7
15 16.06 С 10-6
{9}
15 км 5/5 700 м
[Cu Sc]
+21.3 +16.5 74 +25 +25 комфорт 1018.1 1016.4
18 16.06 С 6-5
{5}
15 км 4/0
[Ci sp]
+20.4 +16.2 77 +23 +24 комфорт 1017.9 1016.2 +22.3
21 16.06 СВ 2-2
{2}
15 км ясно +18.5 +15.6 83 +20 +20 1018.8 1017.1
00 17.06 ЮЗ 2-2
{2}
15 км ясно +17.5 +15.8 90 +18 +18 1018.7 1017.0
03 17.06 Ю 2-2
{2}
10 км 4/4 300 м
[St]
+15.9 +14.4 91 +16 +16 1017.7 1016.0
06 17.06 Ю 2-2
{2}
8000 м 4/4 300 м
[St]
+16.9 +14.7 87 +17 +18 1017.8 1016.1 +14.8
09 17.06 С 6-5
{5}
8000 м 5/5 300 м
[St]
+20.3 +15.7 75 +23 +25 комфорт 1018.0 1016.3
12 17.06 С 10-8
{8}
10 км 4/4 300 м
[St]
+21.3 +16.5 74 +25 +25 комфорт 1017.6 1015.9
15 17.06 С 8-12
{17}
9000 м 6/6 300 м
[St]
+21.6 +16.3 72 +25 +26 комфорт 1016.3 1014.6
18 17.06 С 6-8
{17}
10 км ясно +20.8 +16.6 77 +24 +25 комфорт 1015.3 1013.6 +22.4
21 17.06 СЗ 4-5
{8}
9000 м 3/3 300 м
[St]
+18.9 +16.9 88 +20 +20 1015.6 1013.9

 

Местоположение метеостанции Эль-Хосейма (Марокко): широта 35.18 долгота -3.85 высота над уровнем моря 14 м.

В архиве по умолчанию представлена погода в Эль-Хосейме за последнюю неделю. Архивные данные за месяц целиком и за предыдущие месяцы, начиная с января 2011 года, Вы можете получить, выбрав интересующий диапазон дат из раскрывающегося списка и нажав кнопку "Ввод!".


*Определитесь, кто Вы:
робот инопланетянин человек

Внимание! Время в таблицах - всемирное. Для получения местного времени необходимо прибавить поправку, которая равна 0 ч.

Смотрите также архив погоды в соседних городах и на ближайших метеорологических станциях:

Погода в Аль-Аруи (Марокко) (79 км)
Погода в Мелилье (Испания) (83 км)
Погода в Тазе (Марокко) (108 км)
Погода в Шавене (Марокко) (132 км)
Погода в Тетуане (Марокко) (141 км)
Погода в Сеуте (Испания) (157 км)
Погода в Фуэнхироле (Испания) (166 км)
Погода Гибралтаре (Гибралтар) (173 км)
Погода в Фесе (Марокко) (173 км)
Погода в Мотриле - клуб Наутико (Испания) (174 км)

Пояснения к столбцам:

Ветер - указаны скорость ветра в м/с - средняя за 10 мин, порывы в срок и между сроками (в фигурных скобках) и направление, откуда дует ветер: С - северный, СВ - северо-восточный, В - восточный, ЮВ - юго-восточный, Ю - южный, ЮЗ - юго-западный, З - западный, СЗ - северо-западный.
Видимость - горизонтальная дальность видимости в метрах или километрах. При видимости от 1 до 10 км при отсутствии осадков обычно наблюдается дымка, при ухудшении видимости до 1 км и менее - туман. В сухую погоду видимость может ухудшаться дымом, пылью или мглою.
Явления - указаны атмосферные явления, наблюдавшиеся в срок или в последний час перед сроком; фигурными скобками обозначены явления, наблюдавшиеся между сроками (за 1-3 часа до срока); квадратными скобками обозначены град или гололедные отложения с указанием их диаметра в мм.
Облачность - указаны через наклонную черту общая и нижняя облачность в баллах и высота нижней границы облаков в метрах; квадратными скобками обозначены формы облаков: Ci - перистые, Cs - перисто-слоистые, Cc - перисто-кучевые, Ac - высококучевые, As - высокослоистые, Sc - слоисто-кучевые, Ns - слоисто-дождевые, Cu - кучевые, Cb - кучево-дождевые. Подробнее классификацию облаков см. в Атласе облаков (PDF).
T - Температура воздуха - температура, измеренная на высоте 2 м над землей.
Td - Температура точки росы - температура, при понижении до которой содержащийся в воздухе водяной пар достигнет насыщения.
f - Относительная влажность воздуха - влажноcть воздуха, измеренная на высоте 2 м над землей.
Te - Эффективная температура - температура, которую ощущает одетый по сезону человек в тени. Характеристика душности погоды. При расчете учитывается влияние влажности воздуха и скорости ветра на теплоощущения человека.
Tes - Эффективная температура на солнце - температура, которую ощущает человек, с поправкой на солнечный нагрев. Характеристика знойности погоды. Зависит от высоты солнца над горизонтом, облачности и скорости ветра. Ночью, в пасмурную погоду, а также при ветре 12 м/с и более поправка равна нулю.
P - Атмосферное давление - приведенное к уровню моря атмосферное давление.
Po - Атмосферное давление - измеренное на уровне метеостанции атмосферное давление.
Tmin - Минимальная температура - минимум температуры воздуха на высоте 2 м над землей.
Tmax - Максимальная температура - максимум температуры воздуха на высоте 2 м над землей.
R - Количество осадков - Количество выпавших осадков за период времени, мм. При наведении курсора мыши на число - период времени, за который выпало указанное количество осадков.
R24 - Количество осадков - Количество выпавших осадков за 24 часа, мм.
S - Снежный покров - Высота снежного покрова, см. При наведении курсора мыши на число - состояние снежного покрова и степень покрытия местности в баллах.